Chicago Midway, IL

7:46 PM CST on November 22, 2019 (GMT -0600)
Chicago-Midway

Weather History for KMDW - September, 2019

Change the Weather History Date:

Thursday, September 26, 2019

  Actual Average Record
Temperature  
Mean Temperature 65 °F 62 °F  
Max Temperature 73 °F 71 °F 93 °F (1998)
Min Temperature 57 °F 53 °F 30 °F (1928)
Degree Days  
Heating Degree Days 0 5  
Month to date heating degree days 0 57  
Since 1 July heating degree days 0 62  
Cooling Degree Days 0 2  
Month to date cooling degree days 178 113  
Year to date cooling degree days 1096 1023  
Growing Degree Days 14 (Base 50)    
Moisture  
Dew Point 45 °F    
Average Humidity 47    
Maximum Humidity 69    
Minimum Humidity 33    
Precipitation  
Precipitation T in 0.10 in 2.72 in (1986)
Month to date precipitation 3.90 2.92  
Year to date precipitation 33.81 29.47  
Sea Level Pressure  
Sea Level Pressure 29.91 in    
Wind  
Wind Speed 9 mph (WNW)    
Max Wind Speed 20 mph    
Max Gust Speed 25 mph    
Visibility 10 miles    
Events Rain    
T = Trace of Precipitation, MM = Missing Value Source: NWS Daily Summary

Daily Weather History Graph

Daily Weather History Graph

Search for Another Location

Airport or City:

Astronomy

Sep. 26, 2019 Rise Set
Actual Time 6:42 AM CDT 6:41 PM CDT
Civil Twilight 6:14 AM CDT 7:09 PM CDT
Nautical Twilight 5:42 AM CDT 7:41 PM CDT
Astronomical Twilight 5:09 AM CDT 8:14 PM CDT
Moon 3:44 AM CDT (9/26) 5:57 PM CDT (9/26)
Length of Visible Light 12h 54m
Length of Day
11h 59m
Waning Crescent, 6% of the Moon is Illuminated
Sep 26
Waning Crescent
Sep 28
New
Oct 5
First Quarter
Oct 13
Full
Oct 21
Last Quarter

Hourly Weather History & Observations

Time (CDT) Temp. Dew Point Humidity Pressure Visibility Wind Dir Wind Speed Gust Speed Precip Events Conditions
12:53 AM 66.0 °F 51.1 °F 59% 29.84 in 10.0 mi WNW 9.2 mph 21.9 mph 0.00 in Rain Light Rain
1:53 AM 64.9 °F 50.0 °F 58% 29.82 in 10.0 mi WNW 11.5 mph - 0.00 in Rain Light Rain
2:53 AM 64.0 °F 50.0 °F 60% 29.83 in 10.0 mi NW 13.8 mph 20.7 mph 0.00 in   Overcast
3:53 AM 63.0 °F 46.9 °F 56% 29.85 in 10.0 mi WNW 6.9 mph - N/A   Overcast
4:53 AM 61.0 °F 46.9 °F 60% 29.87 in 10.0 mi NW 10.4 mph - N/A   Clear
5:53 AM 59.0 °F 46.0 °F 62% 29.89 in 10.0 mi NW 11.5 mph - N/A   Partly Cloudy
6:53 AM 57.0 °F 46.9 °F 69% 29.92 in 10.0 mi WNW 8.1 mph - N/A   Partly Cloudy
7:53 AM 59.0 °F 48.0 °F 67% 29.94 in 10.0 mi WNW 8.1 mph - N/A   Partly Cloudy
8:53 AM 61.0 °F 48.0 °F 62% 29.95 in 10.0 mi NW 10.4 mph - N/A   Partly Cloudy
9:53 AM 64.9 °F 45.0 °F 48% 29.96 in 10.0 mi NNW 11.5 mph - N/A   Partly Cloudy
10:53 AM 66.9 °F 42.1 °F 40% 29.97 in 10.0 mi WNW 12.7 mph - N/A   Partly Cloudy
11:53 AM 69.1 °F 41.0 °F 36% 29.97 in 10.0 mi WNW 10.4 mph 24.2 mph N/A   Partly Cloudy
12:53 PM 71.1 °F 41.0 °F 34% 29.96 in 10.0 mi WNW 12.7 mph - N/A   Partly Cloudy
1:53 PM 72.0 °F 41.0 °F 33% 29.94 in 10.0 mi WNW 13.8 mph 20.7 mph N/A   Partly Cloudy
2:53 PM 72.0 °F 41.0 °F 33% 29.94 in 10.0 mi NW 10.4 mph - N/A   Scattered Clouds
3:53 PM 72.0 °F 41.0 °F 33% 29.92 in 10.0 mi West 10.4 mph - N/A   Scattered Clouds
4:53 PM 72.0 °F 41.0 °F 33% 29.91 in 10.0 mi West 9.2 mph 16.1 mph N/A   Scattered Clouds
5:53 PM 71.1 °F 41.0 °F 34% 29.91 in 10.0 mi West 9.2 mph - N/A   Partly Cloudy
6:53 PM 68.0 °F 43.0 °F 40% 29.92 in 10.0 mi WSW 8.1 mph - N/A   Partly Cloudy
7:53 PM 66.9 °F 44.1 °F 44% 29.92 in 10.0 mi South 4.6 mph - N/A   Partly Cloudy
8:53 PM 66.0 °F 45.0 °F 47% 29.93 in 10.0 mi South 5.8 mph - N/A   Partly Cloudy
9:53 PM 64.0 °F 45.0 °F 50% 29.92 in 10.0 mi South 5.8 mph - N/A   Partly Cloudy
10:53 PM 63.0 °F 44.1 °F 50% 29.91 in 10.0 mi South 5.8 mph - N/A   Scattered Clouds
11:53 PM 62.1 °F 44.1 °F 52% 29.91 in 10.0 mi South 5.8 mph - N/A   Partly Cloudy